[[{"header":{"parameterUnit":"m.s-1","parameterCategory":1,"la1":30.2991,"la2":30.254,"lo1":-89.0895,"lo2":-89.0444,"dy":0.0017,"dx":0.0017,"nx":28,"ny":28,"refTime":"2024-04-20T21:00:00:Z","depth":0,"parameterNumber":2,"parameterNumberName":"U-component_of_WINDS"},"data":[0,0,0,0,0,0,0,0,0,0,0,0,0,0,0,0,0,0,0,0,0,0,0,0,0,0,0,0,0,0,0,0,0,0,0,0,0,0,0,0,0,0,0,0,0,0,0,0,0,0,0,0,0,0,0,0,0,0,-1.2234,-1.2233,0,-1.2117,-1.2116,-1.2114,-1.2036,-1.2036,-1.2035,-1.2035,-1.1912,-1.1909,-1.1907,0,0,0,0,0,0,0,0,0,0,0,0,0,-1.2388,-1.2386,-1.2234,-1.2233,-1.2231,-1.2117,-1.2116,-1.2114,-1.2036,-1.2036,-1.2035,-1.2035,-1.1913,-1.191,-1.1906,0,0,0,0,0,0,0,0,0,0,0,0,0,-1.2301,-1.2385,-1.2234,-1.2179,-1.2173,-1.2118,-1.2116,-1.2114,-1.2037,-1.2036,-1.2035,-1.2034,-1.1914,-1.191,-1.1906,-1.1896,0,0,-1.1893,-1.1891,0,0,0,0,0,0,0,0,-1.2306,-1.2296,-1.2189,-1.2183,-1.2176,-1.2091,-1.2125,-1.204,-1.2037,-1.2088,-1.2035,-1.2034,-1.1972,-1.1963,-1.1943,-1.189,-1.1885,-1.1893,-1.189,-1.1888,-1.1887,0,0,0,0,0,0,0,-1.2312,-1.23,-1.2188,-1.2187,-1.2179,-1.2159,-1.2146,-1.2108,-1.2036,-1.2084,-1.2078,-1.2065,-1.1968,-1.1947,-1.1939,-1.1883,-1.1893,-1.1889,-1.1887,-1.1885,-1.1815,-1.1816,0,0,0,0,0,0,-1.2328,-1.2306,-1.2191,-1.2184,-1.2241,-1.2157,-1.2142,-1.2119,-1.2036,-1.2023,-1.2066,-1.2062,-1.1954,-1.1944,-1.1935,-1.1916,-1.1888,-1.1885,-1.1882,-1.1814,-1.1815,-1.1816,0,0,0,0,0,0,-1.2331,-1.2318,-1.2196,-1.2243,-1.2226,-1.2155,-1.2129,-1.2117,-1.2095,-1.2023,-1.2009,-1.2058,-1.1953,-1.194,-1.1906,-1.1911,-1.1883,-1.1879,-1.1814,-1.1815,-1.1816,-1.1881,0,0,0,0,0,0,-1.2336,-1.232,-1.2316,-1.2244,-1.2224,-1.2171,-1.213,-1.2115,-1.2089,-1.2082,-1.2011,-1.1999,-1.1952,-1.1913,-1.1902,-1.1905,-1.1876,-1.1813,-1.1814,-1.1815,-1.1878,-1.1884,-1.1889,0,0,0,0,0,-1.2342,-1.2339,-1.2316,-1.2303,-1.2218,-1.2171,-1.216,-1.2107,-1.2089,-1.2084,-1.2038,-1.2001,-1.1913,-1.191,-1.1897,-1.1899,-1.1812,-1.1814,-1.1815,-1.1875,-1.1883,-1.1889,0,0,0,0,0,0,-1.2412,-1.2328,-1.2302,-1.2276,-1.2231,-1.2158,-1.215,-1.2116,-1.2075,-1.2071,-1.2006,-1.199,-1.1962,-1.1927,-1.1925,-1.1884,-1.1858,-1.1857,-1.1908,-1.1914,-1.192,-1.1928,-1.1872,0,0,0,0,0,-1.2425,-1.2395,-1.2323,-1.2306,-1.2285,-1.2222,-1.2199,-1.2163,-1.2113,-1.2094,-1.2045,-1.1998,-1.1959,-1.1935,-1.1895,-1.1873,-1.1855,-1.1867,-1.1873,-1.1878,-1.1877,-1.1862,-1.1866,-1.1821,-1.1821,-1.1821,0,0,-1.245,-1.2401,-1.2385,-1.2319,-1.228,-1.225,-1.2206,-1.2176,-1.2152,-1.2089,-1.2053,-1.2016,-1.1959,-1.193,-1.1915,-1.19,-1.1886,-1.188,-1.1884,-1.1881,-1.1864,-1.1868,-1.1872,-1.1822,-1.1822,-1.1821,0,0,-1.2481,-1.2441,-1.2422,-1.2384,-1.2326,-1.2284,-1.228,-1.2212,-1.2184,-1.2148,-1.21,-1.207,-1.2006,-1.1967,-1.1939,-1.1955,-1.1919,-1.1944,-1.1972,-1.1958,-1.1961,-1.1964,-1.1969,-1.1971,-1.1944,-1.1944,-1.1944,0,-1.2519,-1.2472,-1.2417,-1.2389,-1.2361,-1.2303,-1.2283,-1.2249,-1.2181,-1.2163,-1.2147,-1.2064,-1.2022,-1.1983,-1.1987,-1.1967,-1.1959,-1.1951,-1.1966,-1.1968,-1.1969,-1.1973,-1.1975,-1.1947,-1.1947,-1.1946,-1.1946,0,-1.2521,-1.2489,-1.2481,-1.2418,-1.2389,-1.2366,-1.2306,-1.2283,-1.2249,-1.2208,-1.2172,-1.2119,-1.2068,-1.2056,-1.2022,-1.2012,-1.2004,-1.1978,-1.195,-1.1978,-1.198,-1.1981,-1.1952,-1.1951,-1.195,-1.1949,0,0,-1.2592,-1.2499,-1.2497,-1.2467,-1.2399,-1.2372,-1.2346,-1.2297,-1.2278,-1.2233,-1.2208,-1.2155,-1.2131,-1.2099,-1.206,-1.2048,-1.2062,-1.2023,-1.202,-1.2031,-1.2046,-1.2066,-1.2068,-1.2039,-1.2039,-1.2039,-1.2051,0,-1.2611,-1.2561,-1.2511,-1.2479,-1.2448,-1.2393,-1.237,-1.2325,-1.2287,-1.2254,-1.2211,-1.2174,-1.2145,-1.2125,-1.2111,-1.2064,-1.2064,-1.2062,-1.2014,-1.2013,-1.2029,-1.2069,-1.2089,-1.2103,-1.2051,-1.2052,-1.2052,0,-1.2626,-1.2585,-1.255,-1.2484,-1.247,-1.245,-1.24,-1.237,-1.2318,-1.2291,-1.2256,-1.2215,-1.2183,-1.216,-1.2115,-1.2115,-1.2092,-1.2066,-1.2065,-1.2057,-1.2033,-1.2062,-1.2106,-1.2108,-1.2053,-1.2053,-1.2052,0,-1.268,-1.2615,-1.2585,-1.2562,-1.2485,-1.2472,-1.244,-1.2387,-1.2361,-1.2317,-1.2299,-1.2252,-1.2226,-1.2191,-1.2138,-1.2126,-1.2098,-1.207,-1.2073,-1.2074,-1.2068,-1.2069,-1.2109,-1.2056,-1.2056,-1.2056,-1.2056,0,-1.2705,-1.2686,-1.2608,-1.259,-1.2566,-1.2509,-1.2486,-1.2449,-1.2402,-1.2375,-1.2325,-1.23,-1.2232,-1.2199,-1.2158,-1.2126,-1.2115,-1.2091,-1.2079,-1.2094,-1.2097,-1.2077,-1.2075,-1.2056,-1.2056,-1.2056,-1.2056,0,-1.276,-1.2708,-1.2672,-1.2603,-1.2585,-1.257,-1.251,-1.249,-1.2449,-1.2415,-1.2404,-1.2339,-1.2297,-1.2241,-1.2182,-1.2154,-1.2127,-1.211,-1.2145,-1.2138,-1.2143,-1.2143,-1.217,-1.217,-1.212,-1.212,-1.2121,0,-1.278,-1.2763,-1.2693,-1.2671,-1.264,-1.2607,-1.2579,-1.2522,-1.2496,-1.2435,-1.2422,-1.2377,-1.2337,-1.2273,-1.222,-1.2174,-1.2155,-1.2168,-1.2148,-1.2163,-1.2153,-1.2155,-1.2152,-1.2172,-1.2173,-1.2174,-1.2175,0,-1.2819,-1.2794,-1.2757,-1.2711,-1.2681,-1.2642,-1.26,-1.2585,-1.2519,-1.2492,-1.2449,-1.2419,-1.2359,-1.2314,-1.2261,-1.2226,-1.2189,-1.2182,-1.2179,-1.2194,-1.2214,-1.2202,-1.2157,-1.2181,-1.218,-1.218,-1.2179,-1.2179,-1.2855,-1.2838,-1.2786,-1.2746,-1.2709,-1.2672,-1.2649,-1.2606,-1.257,-1.2517,-1.2485,-1.2444,-1.2391,-1.2317,-1.2283,-1.2249,-1.2234,-1.2232,-1.2231,-1.2231,-1.2235,-1.2221,-1.2239,-1.2239,-1.2239,-1.2239,-1.2238,0,-1.2891,-1.2855,-1.2819,-1.2763,-1.2732,-1.2702,-1.2654,-1.263,-1.2594,-1.2549,-1.2512,-1.2462,-1.2419,-1.2363,-1.2315,-1.2298,-1.228,-1.2287,-1.2287,-1.2279,-1.2251,-1.2257,-1.2303,-1.2303,-1.2303,-1.2303,-1.2303,-1.2303,-1.2906,-1.2874,-1.2843,-1.2793,-1.2757,-1.2716,-1.2692,-1.2657,-1.262,-1.2568,-1.2532,-1.2496,-1.2446,-1.2394,-1.2352,-1.2337,-1.2321,-1.2333,-1.2312,-1.2287,-1.2281,-1.2276,-1.2281,-1.2331,-1.2331,-1.2343,-1.2343,-1.2343]},{"header":{"parameterUnit":"m.s-1","parameterCategory":1,"la1":30.2991,"la2":30.254,"lo1":-89.0895,"lo2":-89.0444,"dy":0.0017,"dx":0.0017,"nx":28,"ny":28,"refTime":"2024-04-20T21:00:00:Z","depth":0,"parameterNumber":3,"parameterNumberName":"V-component_of_WINDS"},"data":[0,0,0,0,0,0,0,0,0,0,0,0,0,0,0,0,0,0,0,0,0,0,0,0,0,0,0,0,0,0,0,0,0,0,0,0,0,0,0,0,0,0,0,0,0,0,0,0,0,0,0,0,0,0,0,0,0,0,-0.1523,-0.1523,0,-0.1491,-0.1491,-0.149,-0.1533,-0.1535,-0.1536,-0.1538,-0.1503,-0.1501,-0.1499,0,0,0,0,0,0,0,0,0,0,0,0,0,-0.1621,-0.1619,-0.1523,-0.1523,-0.1522,-0.1491,-0.1491,-0.149,-0.1533,-0.1535,-0.1537,-0.1538,-0.1504,-0.1501,-0.1498,0,0,0,0,0,0,0,0,0,0,0,0,0,-0.1582,-0.1618,-0.1523,-0.154,-0.1541,-0.1491,-0.149,-0.149,-0.1532,-0.1535,-0.1537,-0.1539,-0.1505,-0.1501,-0.1498,-0.143,0,0,-0.1487,-0.1486,0,0,0,0,0,0,0,0,-0.1584,-0.1579,-0.1538,-0.1538,-0.154,-0.1518,-0.1512,-0.147,-0.1532,-0.1536,-0.1538,-0.154,-0.1506,-0.1503,-0.1492,-0.1428,-0.1427,-0.1487,-0.1485,-0.1483,-0.1482,0,0,0,0,0,0,0,-0.1587,-0.158,-0.151,-0.1537,-0.1538,-0.1549,-0.1546,-0.1504,-0.1508,-0.1535,-0.1538,-0.1534,-0.1507,-0.1495,-0.1491,-0.1426,-0.1487,-0.1484,-0.1482,-0.148,-0.1305,-0.1303,0,0,0,0,0,0,-0.1588,-0.1582,-0.1511,-0.1509,-0.1568,-0.1545,-0.1542,-0.1523,-0.1509,-0.1509,-0.1532,-0.1536,-0.15,-0.1495,-0.149,-0.1408,-0.1483,-0.148,-0.1478,-0.1307,-0.1304,-0.1302,0,0,0,0,0,0,-0.159,-0.1581,-0.1513,-0.1547,-0.1539,-0.1541,-0.1519,-0.1521,-0.1509,-0.1506,-0.1507,-0.1519,-0.1501,-0.1495,-0.1444,-0.1408,-0.1478,-0.1475,-0.131,-0.1307,-0.1303,-0.1245,0,0,0,0,0,0,-0.1592,-0.1582,-0.1555,-0.1546,-0.1537,-0.1467,-0.1517,-0.1519,-0.1503,-0.1508,-0.1494,-0.1494,-0.1503,-0.1449,-0.1441,-0.1404,-0.1472,-0.1314,-0.1309,-0.1304,-0.125,-0.1239,-0.1231,0,0,0,0,0,-0.1596,-0.154,-0.1554,-0.1545,-0.1504,-0.1465,-0.146,-0.1471,-0.15,-0.1473,-0.1472,-0.1494,-0.1414,-0.1444,-0.1435,-0.1396,-0.1316,-0.131,-0.1305,-0.1254,-0.1242,-0.1231,0,0,0,0,0,0,-0.1544,-0.1539,-0.1554,-0.1494,-0.148,-0.1472,-0.1439,-0.1458,-0.1435,-0.144,-0.1456,-0.1452,-0.1398,-0.1393,-0.1426,-0.133,-0.137,-0.1362,-0.1334,-0.1322,-0.1313,-0.1314,-0.1469,0,0,0,0,0,-0.1526,-0.1495,-0.1492,-0.1439,-0.1431,-0.1437,-0.142,-0.1431,-0.1416,-0.141,-0.1405,-0.139,-0.1362,-0.1342,-0.1316,-0.1251,-0.1248,-0.122,-0.121,-0.1202,-0.1194,-0.1159,-0.1146,-0.1283,-0.1283,-0.1283,0,0,-0.1488,-0.1481,-0.146,-0.1429,-0.1419,-0.1386,-0.1431,-0.1394,-0.137,-0.1404,-0.1356,-0.1352,-0.1337,-0.1278,-0.1252,-0.1272,-0.1156,-0.1195,-0.1189,-0.1185,-0.1152,-0.1139,-0.1127,-0.1279,-0.128,-0.128,0,0,-0.14,-0.1393,-0.1347,-0.1337,-0.1322,-0.1327,-0.1316,-0.1306,-0.1305,-0.1257,-0.1283,-0.1254,-0.1205,-0.1192,-0.1179,-0.109,-0.1109,-0.1081,-0.1029,-0.0994,-0.0984,-0.0974,-0.0941,-0.0929,-0.1074,-0.1074,-0.1074,0,-0.1354,-0.1306,-0.1322,-0.1283,-0.1268,-0.13,-0.1254,-0.1243,-0.122,-0.1209,-0.1232,-0.1171,-0.1163,-0.1102,-0.108,-0.1069,-0.1056,-0.1081,-0.0984,-0.0975,-0.0966,-0.0934,-0.0922,-0.107,-0.1071,-0.1071,-0.1071,0,-0.1249,-0.1215,-0.1181,-0.1158,-0.114,-0.1098,-0.1107,-0.1087,-0.11,-0.1102,-0.1053,-0.1044,-0.1017,-0.1004,-0.1015,-0.0944,-0.0957,-0.0982,-0.1022,-0.0949,-0.0919,-0.0907,-0.1065,-0.1067,-0.1068,-0.1069,0,0,-0.1125,-0.1114,-0.11,-0.1091,-0.1078,-0.1052,-0.1012,-0.0986,-0.0967,-0.0952,-0.0917,-0.0876,-0.0899,-0.0885,-0.0896,-0.0866,-0.0794,-0.0895,-0.0895,-0.0875,-0.0714,-0.0693,-0.0678,-0.0808,-0.0806,-0.0804,-0.0714,0,-0.1036,-0.0967,-0.0981,-0.0913,-0.0882,-0.0912,-0.0878,-0.0866,-0.0867,-0.0841,-0.0843,-0.0812,-0.0846,-0.0837,-0.0809,-0.0809,-0.0762,-0.0816,-0.0775,-0.0773,-0.0775,-0.0663,-0.0641,-0.0556,-0.0703,-0.0701,-0.07,0,-0.0922,-0.0903,-0.0832,-0.0825,-0.0812,-0.078,-0.0758,-0.0733,-0.072,-0.0724,-0.0708,-0.0726,-0.0686,-0.0729,-0.0673,-0.071,-0.0694,-0.0692,-0.0689,-0.0683,-0.073,-0.0652,-0.053,-0.0516,-0.0682,-0.0683,-0.0685,0,-0.0837,-0.0793,-0.0745,-0.0736,-0.0727,-0.0704,-0.0699,-0.0689,-0.0672,-0.0653,-0.0642,-0.0619,-0.0605,-0.0586,-0.0596,-0.0627,-0.0538,-0.0582,-0.0538,-0.0538,-0.0516,-0.0516,-0.0386,-0.051,-0.0511,-0.0511,-0.0511,0,-0.0734,-0.0689,-0.0706,-0.0676,-0.0626,-0.0644,-0.0594,-0.0593,-0.0585,-0.0554,-0.0581,-0.0552,-0.0569,-0.0541,-0.0549,-0.0501,-0.0496,-0.0496,-0.0498,-0.0492,-0.0492,-0.048,-0.0485,-0.0507,-0.0508,-0.0509,-0.0509,0,-0.0629,-0.0638,-0.0587,-0.0584,-0.0582,-0.0545,-0.0542,-0.0514,-0.0519,-0.0481,-0.0473,-0.0479,-0.0448,-0.0458,-0.0424,-0.043,-0.0369,-0.038,-0.0372,-0.0374,-0.0329,-0.0332,-0.0184,-0.0165,-0.0304,-0.0303,-0.0302,0,-0.0561,-0.0527,-0.0521,-0.0503,-0.0496,-0.0467,-0.0451,-0.0468,-0.045,-0.0434,-0.0408,-0.038,-0.0358,-0.0307,-0.0308,-0.0283,-0.0292,-0.0242,-0.0288,-0.0283,-0.0288,-0.0289,-0.0285,-0.0232,-0.023,-0.0229,-0.0228,0,-0.044,-0.0447,-0.0423,-0.04,-0.0381,-0.0364,-0.0349,-0.0333,-0.0349,-0.0328,-0.0297,-0.028,-0.0247,-0.0218,-0.0195,-0.019,-0.021,-0.0214,-0.0202,-0.0194,-0.019,-0.0189,-0.0344,-0.0216,-0.0218,-0.0218,-0.0219,-0.0219,-0.0349,-0.032,-0.0311,-0.0284,-0.0275,-0.0262,-0.0235,-0.0237,-0.0212,-0.0186,-0.0199,-0.0163,-0.0152,-0.0124,-0.0116,-0.0088,-0.0107,-0.009,-0.0085,-0.008,-0.0073,-0.0197,-0.0084,-0.0085,-0.0085,-0.0085,-0.0086,0,-0.0227,-0.0224,-0.0198,-0.0178,-0.0156,-0.0181,-0.0166,-0.0146,-0.0114,-0.0103,-0.0082,-0.0047,-0.0019,-0.002,0.0006,0.0029,0.002,0.0036,0.0036,0.0038,-0.0059,-0.0071,0.0043,0.0043,0.0043,0.0043,0.0043,0.0043,-0.0161,-0.0113,-0.0119,-0.0068,-0.0065,-0.003,-0.002,-0.0007,0.0001,0.0042,0.0064,0.0063,0.007,0.0095,0.0119,0.0118,0.013,0.0151,0.0147,0.0057,0.0045,0.0033,0.0022,0.0153,0.0153,0.0241,0.0242,0.0243]}]]